| time (UTC) | temp C | wind direction | speed KPH | gust KPH | rain 1hr cm | rain 24hr cm | rain mn cm | humidity % | barometer mb |
| 20260507070318 | 4 | 180 | 1.6 | 3.2 | 0.00 | 0.00 | 0.00 | 89 | 1022.2 |
| 20260507065814 | 5 | 180 | 1.6 | 3.2 | 0.00 | 0.00 | 0.00 | 88 | 1022.2 |
| 20260507065311 | 5 | 157 | 1.6 | 3.2 | 0.00 | 0.00 | 0.00 | 86 | 1022.4 |
| 20260507064808 | 6 | 192 | 1.6 | 3.2 | 0.00 | 0.00 | 0.00 | 83 | 1022.1 |
| 20260507064307 | 6 | 90 | 0.0 | 1.6 | 0.00 | 0.00 | 0.00 | 81 | 1022.2 |
| 20260507063805 | 6 | 78 | 0.0 | 1.6 | 0.00 | 0.00 | 0.00 | 80 | 1022.1 |
| 20260507063301 | 6 | 209 | 0.0 | 4.8 | 0.00 | 0.00 | 0.00 | 80 | 1022.2 |
| 20260507062758 | 6 | 6 | 0.0 | 6.4 | 0.00 | 0.00 | 0.00 | 81 | 1022.2 |
| 20260507062255 | 6 | 187 | 0.0 | 1.6 | 0.00 | 0.00 | 0.00 | 79 | 1022.2 |
| 20260507061753 | 7 | 54 | 0.0 | 3.2 | 0.00 | 0.00 | 0.00 | 78 | 1022.1 |
| 20260507061250 | 7 | 63 | 0.0 | 3.2 | 0.00 | 0.00 | 0.00 | 79 | 1022.1 |
| 20260507060748 | 7 | 109 | 1.6 | 1.6 | 0.00 | 0.00 | 0.00 | 80 | 1021.9 |
| 20260507060245 | 6 | 15 | 3.2 | 4.8 | 0.00 | 0.00 | 0.00 | 81 | 1022.0 |
| 20260507055741 | 6 | 354 | 1.6 | 3.2 | 0.00 | 0.00 | 0.00 | 83 | 1021.9 |
| 20260507055237 | 6 | 90 | 0.0 | 3.2 | 0.00 | 0.00 | 0.00 | 84 | 1021.9 |
| 20260507054733 | 6 | 203 | 0.0 | 1.6 | 0.00 | 0.00 | 0.00 | 85 | 1022.0 |
| 20260507054230 | 6 | 353 | 0.0 | 1.6 | 0.00 | 0.00 | 0.00 | 86 | 1022.1 |
| 20260507053728 | 5 | 294 | 0.0 | 1.6 | 0.00 | 0.00 | 0.00 | 86 | 1022.2 |
| 20260507053225 | 5 | 233 | 0.0 | 3.2 | 0.00 | 0.00 | 0.00 | 86 | 1022.2 |
| 20260507052724 | 5 | 200 | 0.0 | 3.2 | 0.00 | 0.00 | 0.00 | 85 | 1022.2 |
| 20260507052220 | 6 | 195 | 0.0 | 3.2 | 0.00 | 0.00 | 0.00 | 85 | 1022.2 |
| 20260507051718 | 6 | 259 | 3.2 | 3.2 | 0.00 | 0.00 | 0.00 | 85 | 1022.0 |
| 20260507051215 | 6 | 243 | 0.0 | 3.2 | 0.00 | 0.00 | 0.00 | 81 | 1021.9 |
| 20260507050711 | 6 | 194 | 0.0 | 1.6 | 0.00 | 0.00 | 0.00 | 80 | 1022.0 |
| 20260507050208 | 7 | 237 | 1.6 | 3.2 | 0.00 | 0.00 | 0.00 | 79 | 1022.0 |
| 20260507045705 | 7 | 325 | 0.0 | 3.2 | 0.00 | 0.00 | 0.00 | 78 | 1022.1 |
| 20260507045201 | 7 | 340 | 0.0 | 1.6 | 0.00 | 0.00 | 0.00 | 78 | 1021.9 |
| 20260507044658 | 7 | 344 | 3.2 | 3.2 | 0.00 | 0.00 | 0.00 | 78 | 1021.9 |
| 20260507044155 | 7 | 332 | 3.2 | 4.8 | 0.00 | 0.00 | 0.00 | 79 | 1022.0 |
| 20260507043651 | 7 | 332 | 3.2 | 4.8 | 0.00 | 0.00 | 0.00 | 79 | 1021.9 |
| 20260507043148 | 7 | 344 | 3.2 | 4.8 | 0.00 | 0.00 | 0.00 | 79 | 1021.8 |
| 20260507042644 | 7 | 342 | 0.0 | 4.8 | 0.00 | 0.00 | 0.00 | 77 | 1021.7 |
| 20260507042139 | 7 | 342 | 0.0 | 4.8 | 0.00 | 0.00 | 0.00 | 76 | 1021.7 |
| 20260507041637 | 8 | 357 | 4.8 | 4.8 | 0.00 | 0.00 | 0.00 | 76 | 1021.7 |
| 20260507041133 | 8 | 352 | 3.2 | 4.8 | 0.00 | 0.00 | 0.00 | 76 | 1021.7 |
| 20260507040630 | 8 | 318 | 4.8 | 4.8 | 0.00 | 0.00 | 0.00 | 75 | 1021.9 |
| 20260507040126 | 8 | 312 | 3.2 | 6.4 | 0.00 | 0.00 | 0.00 | 75 | 1021.8 |
| 20260507035622 | 8 | 354 | 0.0 | 6.4 | 0.00 | 0.00 | 0.00 | 75 | 1021.6 |
| 20260507035118 | 8 | 342 | 4.8 | 6.4 | 0.00 | 0.00 | 0.00 | 75 | 1021.6 |
| 20260507034615 | 8 | 354 | 4.8 | 6.4 | 0.00 | 0.00 | 0.00 | 75 | 1021.6 |
| 20260507034113 | 8 | 338 | 3.2 | 6.4 | 0.00 | 0.00 | 0.00 | 75 | 1021.5 |
| 20260507033611 | 8 | 349 | 4.8 | 6.4 | 0.00 | 0.00 | 0.00 | 75 | 1021.5 |
| 20260507033108 | 8 | 330 | 3.2 | 4.8 | 0.00 | 0.00 | 0.00 | 74 | 1021.5 |
| 20260507032605 | 9 | 318 | 11.3 | 11.3 | 0.00 | 0.00 | 0.00 | 74 | 1021.5 |
| 20260507032056 | 9 | 328 | 4.8 | 8.0 | 0.00 | 0.00 | 0.00 | 74 | 1021.2 |
| 20260507031552 | 9 | 343 | 6.4 | 12.9 | 0.00 | 0.00 | 0.00 | 73 | 1021.5 |
| 20260507031050 | 9 | 332 | 4.8 | 6.4 | 0.00 | 0.00 | 0.00 | 75 | 1021.3 |
| 20260507030546 | 9 | 322 | 4.8 | 8.0 | 0.00 | 0.00 | 0.00 | 75 | 1021.2 |
| 20260507030044 | 8 | 311 | 4.8 | 4.8 | 0.00 | 0.00 | 0.00 | 76 | 1021.3 |
| 20260507025541 | 8 | 301 | 3.2 | 4.8 | 0.00 | 0.00 | 0.00 | 78 | 1021.3 |
| 20260507025038 | 9 | 294 | 1.6 | 4.8 | 0.00 | 0.00 | 0.00 | 77 | 1021.3 |
| 20260507024536 | 9 | 295 | 3.2 | 3.2 | 0.00 | 0.00 | 0.00 | 75 | 1021.0 |
| 20260507024032 | 10 | 331 | 1.6 | 3.2 | 0.00 | 0.00 | 0.00 | 75 | 1020.8 |
| 20260507023528 | 9 | 306 | 0.0 | 3.2 | 0.00 | 0.00 | 0.00 | 74 | 1020.8 |
| 20260507023026 | 10 | 290 | 3.2 | 3.2 | 0.00 | 0.00 | 0.00 | 73 | 1020.8 |
| 20260507022523 | 10 | 334 | 1.6 | 3.2 | 0.00 | 0.00 | 0.00 | 72 | 1020.8 |
| 20260507022018 | 10 | 350 | 0.0 | 3.2 | 0.00 | 0.00 | 0.00 | 71 | 1020.9 |
| 20260507021514 | 10 | 325 | 1.6 | 3.2 | 0.00 | 0.00 | 0.00 | 72 | 1020.8 |
| 20260507021011 | 10 | 300 | 0.0 | 3.2 | 0.00 | 0.00 | 0.00 | 72 | 1020.7 |
| 20260507020508 | 10 | 341 | 3.2 | 4.8 | 0.00 | 0.00 | 0.00 | 71 | 1021.0 |
| 20260507020005 | 10 | 303 | 1.6 | 3.2 | 0.00 | 0.00 | 0.00 | 71 | 1020.6 |
| 20260507015503 | 10 | 325 | 1.6 | 3.2 | 0.00 | 0.00 | 0.00 | 72 | 1020.6 |
| 20260507015000 | 10 | 324 | 4.8 | 4.8 | 0.00 | 0.00 | 0.00 | 72 | 1020.6 |
| 20260507014457 | 10 | 276 | 3.2 | 3.2 | 0.00 | 0.00 | 0.00 | 71 | 1020.5 |
| 20260507013953 | 11 | 346 | 4.8 | 6.4 | 0.00 | 0.00 | 0.00 | 70 | 1020.5 |
| 20260507013449 | 11 | 334 | 3.2 | 4.8 | 0.00 | 0.00 | 0.00 | 71 | 1020.4 |
| 20260507012947 | 11 | 10 | 3.2 | 3.2 | 0.00 | 0.00 | 0.00 | 70 | 1020.5 |
| 20260507012443 | 11 | 327 | 3.2 | 3.2 | 0.00 | 0.00 | 0.00 | 69 | 1020.4 |
| 20260507011940 | 11 | 346 | 3.2 | 3.2 | 0.00 | 0.00 | 0.00 | 68 | 1020.4 |
| 20260507011437 | 11 | 357 | 4.8 | 4.8 | 0.00 | 0.00 | 0.00 | 67 | 1020.2 |
| 20260507010937 | 11 | 318 | 4.8 | 4.8 | 0.00 | 0.00 | 0.00 | 67 | 1020.2 |
| 20260507010432 | 11 | 337 | 1.6 | 4.8 | 0.00 | 0.00 | 0.00 | 66 | 1020.4 |
| 20260507005929 | 12 | 333 | 4.8 | 4.8 | 0.00 | 0.00 | 0.00 | 64 | 1020.0 |
| 20260507005426 | 12 | 324 | 3.2 | 4.8 | 0.00 | 0.00 | 0.00 | 63 | 1020.2 |
| 20260507004918 | 12 | 307 | 3.2 | 4.8 | 0.00 | 0.00 | 0.00 | 63 | 1020.2 |
| 20260507004414 | 12 | 358 | 4.8 | 8.0 | 0.00 | 0.00 | 0.00 | 61 | 1020.1 |
| 20260507003912 | 13 | 346 | 6.4 | 8.0 | 0.00 | 0.00 | 0.00 | 60 | 1020.0 |
| 20260507003407 | 13 | 0 | 3.2 | 9.7 | 0.00 | 0.00 | 0.00 | 59 | 1020.0 |
| 20260507002903 | 13 | 324 | 4.8 | 8.0 | 0.00 | 0.00 | 0.00 | 58 | 1019.9 |
| 20260507002359 | 13 | 346 | 4.8 | 8.0 | 0.00 | 0.00 | 0.00 | 57 | 1019.8 |
| 20260507001856 | 15 | 334 | 6.4 | 12.9 | 0.00 | 0.00 | 0.00 | 54 | 1020.0 |
| 20260507001353 | 15 | 5 | 9.7 | 14.5 | 0.00 | 0.00 | 0.00 | 53 | 1019.7 |
| 20260507000850 | 15 | 6 | 8.0 | 17.7 | 0.00 | 0.00 | 0.00 | 53 | 1019.8 |
| 20260507000345 | 15 | 328 | 8.0 | 14.5 | 0.00 | 0.00 | 0.00 | 54 | 1019.9 |
| 20260506235842 | 15 | 11 | 14.5 | 14.5 | 0.00 | 0.00 | 0.00 | 51 | 1019.4 |
| 20260506235339 | 15 | 4 | 11.3 | 11.3 | 0.00 | 0.00 | 0.00 | 53 | 1019.5 |
| 20260506234834 | 15 | 331 | 9.7 | 22.5 | 0.00 | 0.00 | 0.00 | 51 | 1019.4 |
| 20260506234332 | 15 | 334 | 8.0 | 14.5 | 0.00 | 0.00 | 0.00 | 52 | 1019.7 |
| 20260506233829 | 15 | 72 | 4.8 | 14.5 | 0.00 | 0.00 | 0.00 | 53 | 1019.7 |
| 20260506233320 | 15 | 10 | 14.5 | 27.4 | 0.00 | 0.00 | 0.00 | 51 | 1019.4 |
| 20260506232817 | 15 | 13 | 19.3 | 19.3 | 0.00 | 0.00 | 0.00 | 55 | 1019.5 |
| 20260506232312 | 15 | 15 | 19.3 | 20.9 | 0.00 | 0.00 | 0.00 | 54 | 1019.1 |
| 20260506231809 | 15 | 3 | 16.1 | 17.7 | 0.00 | 0.00 | 0.00 | 55 | 1019.0 |
| 20260506231307 | 15 | 7 | 11.3 | 20.9 | 0.00 | 0.00 | 0.00 | 53 | 1018.6 |
| 20260506230804 | 15 | 10 | 17.7 | 24.1 | 0.00 | 0.00 | 0.00 | 54 | 1018.7 |
| 20260506230301 | 15 | 18 | 14.5 | 24.1 | 0.00 | 0.00 | 0.00 | 54 | 1019.0 |
| 20260506225757 | 15 | 13 | 9.7 | 16.1 | 0.00 | 0.00 | 0.00 | 55 | 1018.5 |
| 20260506225254 | 15 | 326 | 8.0 | 22.5 | 0.00 | 0.00 | 0.00 | 56 | 1018.9 |
| 20260506224745 | 15 | 356 | 8.0 | 19.3 | 0.00 | 0.00 | 0.00 | 53 | 1018.9 |
| 20260506224243 | 16 | 4 | 11.3 | 17.7 | 0.00 | 0.00 | 0.00 | 55 | 1018.9 |
| 20260506223738 | 15 | 2 | 6.4 | 19.3 | 0.00 | 0.00 | 0.00 | 58 | 1019.0 |
| 20260506223234 | 15 | 13 | 12.9 | 19.3 | 0.00 | 0.00 | 0.00 | 57 | 1019.0 |
| 20260506222731 | 15 | 17 | 17.7 | 27.4 | 0.00 | 0.00 | 0.00 | 56 | 1018.7 |
| 20260506222227 | 16 | 2 | 14.5 | 19.3 | 0.00 | 0.00 | 0.00 | 55 | 1018.9 |
| 20260506221725 | 16 | 17 | 8.0 | 17.7 | 0.00 | 0.00 | 0.00 | 54 | 1018.7 |
| 20260506221223 | 16 | 8 | 3.2 | 14.5 | 0.00 | 0.00 | 0.00 | 55 | 1019.0 |
| 20260506220720 | 16 | 27 | 17.7 | 24.1 | 0.00 | 0.00 | 0.00 | 54 | 1019.0 |
| 20260506220214 | 16 | 315 | 12.9 | 22.5 | 0.00 | 0.00 | 0.00 | 53 | 1018.7 |
| 20260506215711 | 16 | 8 | 17.7 | 24.1 | 0.00 | 0.00 | 0.00 | 54 | 1018.9 |
| 20260506215207 | 16 | 337 | 3.2 | 11.3 | 0.00 | 0.00 | 0.00 | 55 | 1019.0 |
| 20260506214704 | 16 | 347 | 12.9 | 22.5 | 0.00 | 0.00 | 0.00 | 54 | 1018.9 |
| 20260506214201 | 16 | 329 | 12.9 | 24.1 | 0.00 | 0.00 | 0.00 | 57 | 1018.9 |
| 20260506213659 | 16 | 351 | 11.3 | 19.3 | 0.00 | 0.00 | 0.00 | 58 | 1019.0 |
| 20260506213156 | 16 | 3 | 4.8 | 22.5 | 0.00 | 0.00 | 0.00 | 58 | 1019.1 |
| 20260506212653 | 16 | 36 | 11.3 | 19.3 | 0.00 | 0.00 | 0.00 | 54 | 1018.9 |
| 20260506212148 | 16 | 24 | 17.7 | 22.5 | 0.00 | 0.00 | 0.00 | 56 | 1019.0 |
| 20260506211644 | 15 | 326 | 11.3 | 16.1 | 0.00 | 0.00 | 0.00 | 54 | 1019.1 |
| 20260506211141 | 16 | 16 | 16.1 | 35.4 | 0.00 | 0.00 | 0.00 | 56 | 1019.1 |
| 20260506210638 | 15 | 15 | 8.0 | 20.9 | 0.00 | 0.00 | 0.00 | 59 | 1019.2 |
| 20260506210134 | 15 | 10 | 16.1 | 20.9 | 0.00 | 0.00 | 0.00 | 56 | 1019.2 |
| 20260506205631 | 15 | 13 | 17.7 | 25.7 | 0.00 | 0.00 | 0.00 | 57 | 1019.4 |
| 20260506205126 | 15 | 8 | 17.7 | 27.4 | 0.00 | 0.00 | 0.00 | 55 | 1019.4 |
| 20260506204625 | 16 | 61 | 4.8 | 12.9 | 0.00 | 0.00 | 0.00 | 54 | 1019.4 |
| 20260506204121 | 15 | 336 | 11.3 | 22.5 | 0.00 | 0.00 | 0.00 | 57 | 1019.6 |
| 20260506203620 | 15 | 339 | 4.8 | 12.9 | 0.00 | 0.00 | 0.00 | 58 | 1019.8 |
| 20260506203116 | 15 | 348 | 6.4 | 19.3 | 0.00 | 0.00 | 0.00 | 57 | 1020.0 |
| 20260506202614 | 15 | 355 | 9.7 | 24.1 | 0.00 | 0.00 | 0.00 | 58 | 1020.0 |
| 20260506202110 | 16 | 11 | 17.7 | 25.7 | 0.00 | 0.00 | 0.00 | 58 | 1019.6 |
| 20260506201607 | 16 | 42 | 11.3 | 16.1 | 0.00 | 0.00 | 0.00 | 60 | 1019.9 |
| 20260506201104 | 15 | 1 | 9.7 | 14.5 | 0.00 | 0.00 | 0.00 | 58 | 1020.2 |
| 20260506200600 | 16 | 355 | 6.4 | 16.1 | 0.00 | 0.00 | 0.00 | 59 | 1019.9 |
| 20260506200057 | 15 | 9 | 6.4 | 17.7 | 0.00 | 0.00 | 0.00 | 57 | 1019.9 |
| 20260506195553 | 15 | 57 | 11.3 | 20.9 | 0.00 | 0.00 | 0.00 | 57 | 1019.7 |
| 20260506195050 | 15 | 22 | 4.8 | 17.7 | 0.00 | 0.00 | 0.00 | 60 | 1020.0 |
| 20260506194548 | 15 | 90 | 4.8 | 17.7 | 0.00 | 0.00 | 0.00 | 61 | 1020.1 |
| 20260506194043 | 15 | 45 | 9.7 | 12.9 | 0.00 | 0.00 | 0.00 | 62 | 1020.2 |
| 20260506193541 | 15 | 18 | 8.0 | 22.5 | 0.00 | 0.00 | 0.00 | 62 | 1020.1 |
| 20260506193039 | 15 | 7 | 11.3 | 17.7 | 0.00 | 0.00 | 0.00 | 62 | 1020.3 |
| 20260506192535 | 15 | 9 | 8.0 | 12.9 | 0.00 | 0.00 | 0.00 | 62 | 1020.3 |
| 20260506192031 | 14 | 17 | 14.5 | 22.5 | 0.00 | 0.00 | 0.00 | 63 | 1020.3 |
| 20260506191528 | 14 | 346 | 9.7 | 22.5 | 0.00 | 0.00 | 0.00 | 62 | 1020.4 |
| 20260506191024 | 15 | 1 | 8.0 | 14.5 | 0.00 | 0.00 | 0.00 | 62 | 1020.2 |
| 20260506190521 | 15 | 359 | 14.5 | 25.7 | 0.00 | 0.00 | 0.00 | 63 | 1020.5 |
| 20260506190019 | 14 | 45 | 8.0 | 16.1 | 0.00 | 0.00 | 0.00 | 62 | 1020.4 |
| 20260506185515 | 15 | 0 | 4.8 | 20.9 | 0.00 | 0.00 | 0.00 | 67 | 1020.3 |
| 20260506185012 | 14 | 77 | 3.2 | 16.1 | 0.00 | 0.00 | 0.00 | 64 | 1020.6 |
| 20260506184509 | 13 | 22 | 19.3 | 29.0 | 0.00 | 0.00 | 0.00 | 62 | 1020.6 |
| 20260506184006 | 14 | 3 | 4.8 | 14.5 | 0.00 | 0.00 | 0.00 | 64 | 1020.8 |
| 20260506183503 | 13 | 3 | 8.0 | 17.7 | 0.00 | 0.00 | 0.00 | 67 | 1020.9 |
| 20260506182959 | 13 | 354 | 11.3 | 17.7 | 0.00 | 0.00 | 0.00 | 66 | 1021.1 |
| 20260506182456 | 13 | 324 | 20.9 | 25.7 | 0.00 | 0.00 | 0.00 | 66 | 1021.2 |
| 20260506181953 | 13 | 352 | 6.4 | 12.9 | 0.00 | 0.00 | 0.00 | 66 | 1021.7 |
| 20260506181451 | 13 | 64 | 11.3 | 19.3 | 0.00 | 0.00 | 0.00 | 67 | 1021.8 |
| 20260506180948 | 13 | 342 | 3.2 | 11.3 | 0.00 | 0.00 | 0.00 | 66 | 1021.7 |
| 20260506180444 | 13 | 324 | 20.9 | 20.9 | 0.00 | 0.00 | 0.00 | 66 | 1021.6 |
| 20260506175941 | 13 | 8 | 9.7 | 25.7 | 0.00 | 0.00 | 0.00 | 66 | 1021.8 |
| 20260506175438 | 13 | 13 | 9.7 | 14.5 | 0.00 | 0.00 | 0.00 | 65 | 1021.8 |
| 20260506174934 | 13 | 6 | 0.0 | 11.3 | 0.00 | 0.00 | 0.00 | 65 | 1021.5 |
| 20260506174433 | 13 | 28 | 8.0 | 19.3 | 0.00 | 0.00 | 0.00 | 65 | 1021.7 |
| 20260506173929 | 13 | 349 | 4.8 | 20.9 | 0.00 | 0.00 | 0.00 | 67 | 1021.7 |
| 20260506173426 | 14 | 80 | 8.0 | 11.3 | 0.00 | 0.00 | 0.00 | 67 | 1021.3 |
| 20260506172923 | 13 | 10 | 8.0 | 9.7 | 0.00 | 0.00 | 0.00 | 65 | 1021.6 |
| 20260506172419 | 13 | 1 | 8.0 | 12.9 | 0.00 | 0.00 | 0.00 | 67 | 1021.5 |
| 20260506171916 | 14 | 22 | 11.3 | 14.5 | 0.00 | 0.00 | 0.00 | 64 | 1021.6 |
| 20260506171414 | 14 | 30 | 11.3 | 16.1 | 0.00 | 0.00 | 0.00 | 69 | 1021.6 |
| 20260506170911 | 13 | 331 | 9.7 | 16.1 | 0.00 | 0.00 | 0.00 | 66 | 1021.7 |
| 20260506170407 | 13 | 63 | 0.0 | 14.5 | 0.00 | 0.00 | 0.00 | 62 | 1021.7 |
| 20260506165901 | 13 | 9 | 9.7 | 12.9 | 0.00 | 0.00 | 0.00 | 65 | 1021.8 |
| 20260506165359 | 13 | 0 | 4.8 | 16.1 | 0.00 | 0.00 | 0.00 | 65 | 1021.7 |
| 20260506164855 | 13 | 22 | 3.2 | 12.9 | 0.00 | 0.00 | 0.00 | 64 | 1021.8 |
| 20260506164351 | 13 | 24 | 9.7 | 19.3 | 0.00 | 0.00 | 0.00 | 68 | 1021.8 |
| 20260506163849 | 13 | 11 | 3.2 | 19.3 | 0.00 | 0.00 | 0.00 | 67 | 1021.6 |
| 20260506163343 | 13 | 350 | 4.8 | 14.5 | 0.00 | 0.00 | 0.00 | 68 | 1021.5 |
| 20260506162839 | 12 | 43 | 11.3 | 19.3 | 0.00 | 0.00 | 0.00 | 67 | 1021.2 |
| 20260506162337 | 12 | 19 | 6.4 | 20.9 | 0.00 | 0.00 | 0.00 | 68 | 1021.0 |
| 20260506161829 | 12 | 3 | 6.4 | 16.1 | 0.00 | 0.00 | 0.00 | 70 | 1020.8 |
| 20260506161326 | 11 | 26 | 1.6 | 20.9 | 0.00 | 0.00 | 0.00 | 71 | 1020.5 |
| 20260506160823 | 11 | 56 | 8.0 | 17.7 | 0.00 | 0.00 | 0.00 | 71 | 1020.6 |
| 20260506160319 | 11 | 17 | 9.7 | 16.1 | 0.00 | 0.00 | 0.00 | 70 | 1020.7 |
| 20260506155818 | 11 | 45 | 16.1 | 24.1 | 0.00 | 0.00 | 0.00 | 70 | 1021.0 |
| 20260506155315 | 11 | 351 | 6.4 | 17.7 | 0.00 | 0.00 | 0.00 | 70 | 1021.0 |
| 20260506153428 | 11 | 35 | 24.1 | 24.1 | 0.00 | 0.00 | 0.00 | 71 | 1020.9 |
| 20260506152925 | 11 | 22 | 14.5 | 22.5 | 0.00 | 0.00 | 0.00 | 73 | 1021.0 |
| 20260506152421 | 11 | 105 | 8.0 | 20.9 | 0.00 | 0.00 | 0.00 | 73 | 1020.6 |
| 20260506151920 | 11 | 21 | 11.3 | 20.9 | 0.00 | 0.00 | 0.00 | 75 | 1020.5 |
| 20260506151417 | 10 | 61 | 3.2 | 16.1 | 0.00 | 0.00 | 0.00 | 76 | 1020.9 |
| 20260506150914 | 10 | 64 | 16.1 | 19.3 | 0.00 | 0.00 | 0.00 | 75 | 1020.5 |
| 20260506150410 | 10 | 41 | 8.0 | 25.7 | 0.00 | 0.00 | 0.00 | 77 | 1020.7 |
| 20260506145908 | 10 | 40 | 11.3 | 20.9 | 0.00 | 0.00 | 0.00 | 77 | 1020.7 |
| 20260506145403 | 10 | 48 | 3.2 | 24.1 | 0.00 | 0.00 | 0.00 | 77 | 1020.8 |
| 20260506144901 | 10 | 57 | 4.8 | 17.7 | 0.00 | 0.00 | 0.00 | 78 | 1021.0 |
| 20260506144357 | 10 | 50 | 8.0 | 17.7 | 0.00 | 0.00 | 0.00 | 79 | 1020.7 |
| 20260506143856 | 9 | 105 | 12.9 | 19.3 | 0.00 | 0.00 | 0.00 | 78 | 1020.7 |
| 20260506143353 | 9 | 70 | 17.7 | 17.7 | 0.00 | 0.00 | 0.00 | 78 | 1020.9 |
| 20260506142851 | 9 | 6 | 6.4 | 17.7 | 0.00 | 0.00 | 0.00 | 79 | 1020.8 |
| 20260506142348 | 8 | 37 | 9.7 | 19.3 | 0.00 | 0.00 | 0.00 | 79 | 1021.0 |
| 20260506141847 | 8 | 6 | 17.7 | 29.0 | 0.00 | 0.00 | 0.00 | 80 | 1021.1 |
| 20260506141344 | 8 | 29 | 1.6 | 12.9 | 0.00 | 0.00 | 0.00 | 81 | 1020.9 |
| 20260506140843 | 8 | 345 | 0.0 | 20.9 | 0.00 | 0.00 | 0.00 | 81 | 1021.0 |
| 20260506140339 | 8 | 357 | 3.2 | 17.7 | 0.00 | 0.00 | 0.00 | 81 | 1020.7 |
| 20260506135836 | 9 | 69 | 4.8 | 17.7 | 0.00 | 0.00 | 0.00 | 85 | 1020.5 |
| 20260506135333 | 8 | 148 | 4.8 | 24.1 | 0.00 | 0.00 | 0.00 | 86 | 1020.6 |
| 20260506134829 | 8 | 41 | 6.4 | 20.9 | 0.00 | 0.00 | 0.00 | 86 | 1020.9 |
| 20260506134325 | 8 | 60 | 9.7 | 16.1 | 0.00 | 0.00 | 0.00 | 87 | 1021.0 |
| 20260506133823 | 8 | 22 | 11.3 | 14.5 | 0.00 | 0.00 | 0.00 | 89 | 1020.8 |
| 20260506133319 | 8 | 28 | 8.0 | 22.5 | 0.00 | 0.00 | 0.00 | 88 | 1020.7 |
| 20260506132816 | 8 | 5 | 9.7 | 19.3 | 0.00 | 0.00 | 0.00 | 90 | 1020.7 |
| 20260506132313 | 8 | 14 | 9.7 | 22.5 | 0.00 | 0.00 | 0.00 | 90 | 1020.5 |
| 20260506131811 | 8 | 16 | 14.5 | 19.3 | 0.00 | 0.00 | 0.00 | 90 | 1021.0 |
| 20260506131307 | 8 | 13 | 14.5 | 14.5 | 0.00 | 0.00 | 0.00 | 91 | 1020.7 |
| 20260506130804 | 8 | 356 | 9.7 | 16.1 | 0.00 | 0.00 | 0.00 | 92 | 1020.4 |
| 20260506130301 | 7 | 354 | 14.5 | 17.7 | 0.00 | 0.00 | 0.00 | 93 | 1020.6 |
| 20260506125759 | 7 | 7 | 9.7 | 24.1 | 0.00 | 0.00 | 0.00 | 92 | 1020.1 |
| 20260506125256 | 7 | 21 | 6.4 | 24.1 | 0.00 | 0.00 | 0.00 | 92 | 1020.5 |
| 20260506124755 | 7 | 84 | 1.6 | 12.9 | 0.00 | 0.00 | 0.00 | 93 | 1020.4 |
| 20260506124252 | 7 | 39 | 12.9 | 17.7 | 0.00 | 0.00 | 0.00 | 92 | 1020.3 |
| 20260506123749 | 7 | 10 | 11.3 | 20.9 | 0.00 | 0.00 | 0.00 | 92 | 1020.4 |
| 20260506123248 | 7 | 47 | 8.0 | 16.1 | 0.00 | 0.00 | 0.00 | 93 | 1020.4 |
| 20260506122744 | 7 | 4 | 8.0 | 17.7 | 0.00 | 0.00 | 0.00 | 93 | 1020.5 |
| 20260506122241 | 7 | 0 | 11.3 | 17.7 | 0.00 | 0.00 | 0.00 | 93 | 1020.4 |
| 20260506121740 | 7 | 10 | 9.7 | 17.7 | 0.00 | 0.00 | 0.00 | 93 | 1020.5 |
| 20260506121236 | 7 | 18 | 16.1 | 19.3 | 0.00 | 0.00 | 0.00 | 93 | 1020.6 |
| 20260506120733 | 7 | 352 | 9.7 | 19.3 | 0.00 | 0.00 | 0.00 | 93 | 1020.4 |
| 20260506120231 | 7 | 6 | 9.7 | 16.1 | 0.00 | 0.00 | 0.00 | 94 | 1020.6 |
| 20260506115729 | 7 | 5 | 6.4 | 24.1 | 0.00 | 0.00 | 0.00 | 94 | 1020.3 |
| 20260506115227 | 7 | 8 | 12.9 | 17.7 | 0.00 | 0.00 | 0.00 | 94 | 1020.0 |
| 20260506114724 | 7 | 347 | 6.4 | 14.5 | 0.00 | 0.00 | 0.00 | 95 | 1020.0 |
| 20260506114222 | 7 | 8 | 8.0 | 16.1 | 0.00 | 0.00 | 0.00 | 95 | 1020.0 |
| 20260506113720 | 7 | 352 | 9.7 | 17.7 | 0.00 | 0.00 | 0.00 | 95 | 1020.2 |
| 20260506113217 | 7 | 337 | 8.0 | 20.9 | 0.00 | 0.00 | 0.00 | 95 | 1020.3 |
| 20260506112713 | 7 | 357 | 4.8 | 11.3 | 0.00 | 0.00 | 0.00 | 95 | 1020.0 |
| 20260506112211 | 7 | 12 | 8.0 | 14.5 | 0.00 | 0.00 | 0.00 | 95 | 1019.9 |
| 20260506111708 | 7 | 346 | 6.4 | 17.7 | 0.00 | 0.00 | 0.00 | 94 | 1019.7 |
| 20260506111207 | 7 | 353 | 8.0 | 17.7 | 0.00 | 0.00 | 0.00 | 94 | 1019.5 |
| 20260506110703 | 7 | 3 | 8.0 | 11.3 | 0.00 | 0.00 | 0.00 | 94 | 1019.5 |
| 20260506110201 | 7 | 0 | 6.4 | 12.9 | 0.00 | 0.00 | 0.00 | 94 | 1019.5 |
| 20260506105657 | 7 | 345 | 4.8 | 9.7 | 0.00 | 0.00 | 0.00 | 94 | 1019.2 |
| 20260506105154 | 7 | 0 | 6.4 | 8.0 | 0.00 | 0.00 | 0.00 | 94 | 1019.2 |
| 20260506104652 | 7 | 354 | 8.0 | 11.3 | 0.00 | 0.00 | 0.00 | 94 | 1019.2 |
| 20260506104149 | 7 | 7 | 11.3 | 20.9 | 0.00 | 0.00 | 0.00 | 93 | 1019.1 |
| 20260506103646 | 7 | 313 | 4.8 | 12.9 | 0.00 | 0.00 | 0.00 | 93 | 1019.2 |
| 20260506103143 | 7 | 340 | 4.8 | 11.3 | 0.00 | 0.00 | 0.00 | 93 | 1018.9 |
| 20260506102642 | 7 | 18 | 4.8 | 8.0 | 0.00 | 0.00 | 0.00 | 93 | 1018.5 |
| 20260506102139 | 7 | 77 | 0.0 | 11.3 | 0.00 | 0.00 | 0.00 | 93 | 1018.3 |
| 20260506101635 | 7 | 353 | 11.3 | 11.3 | 0.00 | 0.00 | 0.00 | 93 | 1018.2 |
| 20260506101132 | 7 | 336 | 11.3 | 12.9 | 0.00 | 0.00 | 0.00 | 93 | 1017.9 |
| 20260506100631 | 7 | 5 | 9.7 | 11.3 | 0.00 | 0.00 | 0.00 | 92 | 1018.0 |
| 20260506100128 | 7 | 19 | 3.2 | 16.1 | 0.00 | 0.00 | 0.00 | 92 | 1018.0 |
| 20260506095627 | 7 | 3 | 8.0 | 14.5 | 0.00 | 0.00 | 0.00 | 92 | 1018.2 |
| 20260506095123 | 7 | 348 | 4.8 | 17.7 | 0.00 | 0.00 | 0.00 | 91 | 1018.3 |
| 20260506094621 | 7 | 334 | 9.7 | 11.3 | 0.00 | 0.00 | 0.00 | 91 | 1018.2 |
| 20260506094118 | 7 | 339 | 4.8 | 11.3 | 0.00 | 0.00 | 0.00 | 91 | 1018.1 |
| 20260506093617 | 7 | 357 | 4.8 | 11.3 | 0.00 | 0.00 | 0.00 | 91 | 1018.2 |
| 20260506093113 | 7 | 359 | 9.7 | 12.9 | 0.00 | 0.00 | 0.00 | 91 | 1017.8 |
| 20260506092611 | 7 | 6 | 6.4 | 11.3 | 0.00 | 0.00 | 0.00 | 90 | 1017.7 |
| 20260506092108 | 7 | 346 | 9.7 | 9.7 | 0.00 | 0.00 | 0.00 | 91 | 1017.3 |
| 20260506091606 | 7 | 357 | 11.3 | 11.3 | 0.00 | 0.00 | 0.00 | 91 | 1016.9 |
| 20260506091103 | 7 | 0 | 4.8 | 9.7 | 0.00 | 0.00 | 0.00 | 91 | 1017.2 |
| 20260506090601 | 7 | 6 | 9.7 | 9.7 | 0.00 | 0.00 | 0.00 | 90 | 1017.1 |
| 20260506090057 | 7 | 12 | 0.0 | 8.0 | 0.00 | 0.00 | 0.00 | 90 | 1017.0 |
| 20260506085554 | 7 | 32 | 3.2 | 12.9 | 0.00 | 0.00 | 0.00 | 90 | 1017.2 |
| 20260506085050 | 7 | 23 | 1.6 | 8.0 | 0.00 | 0.00 | 0.00 | 90 | 1017.3 |
| 20260506084547 | 7 | 68 | 0.0 | 8.0 | 0.00 | 0.00 | 0.00 | 91 | 1017.5 |
| 20260506084044 | 7 | 348 | 6.4 | 6.4 | 0.00 | 0.00 | 0.00 | 91 | 1017.3 |
| 20260506083541 | 7 | 342 | 0.0 | 8.0 | 0.00 | 0.00 | 0.00 | 91 | 1017.2 |
| 20260506083038 | 7 | 356 | 3.2 | 8.0 | 0.00 | 0.00 | 0.00 | 92 | 1017.0 |
| 20260506082535 | 7 | 315 | 3.2 | 6.4 | 0.00 | 0.00 | 0.00 | 91 | 1017.3 |
| 20260506082031 | 7 | 319 | 3.2 | 6.4 | 0.00 | 0.00 | 0.00 | 91 | 1016.8 |
| 20260506081529 | 7 | 1 | 8.0 | 14.5 | 0.00 | 0.00 | 0.00 | 91 | 1016.9 |
| 20260506081026 | 7 | 351 | 8.0 | 8.0 | 0.00 | 0.00 | 0.00 | 90 | 1016.4 |
| 20260506080524 | 7 | 324 | 0.0 | 6.4 | 0.00 | 0.00 | 0.00 | 90 | 1016.5 |
| 20260506073507 | 7 | 33 | 9.7 | 9.7 | 0.00 | 0.00 | 0.00 | 91 | 1016.0 |
| 20260506073004 | 7 | 6 | 8.0 | 8.0 | 0.00 | 0.00 | 0.00 | 91 | 1016.3 |
| 20260506072501 | 7 | 27 | 9.7 | 14.5 | 0.00 | 0.00 | 0.00 | 91 | 1015.9 |
| 20260506071959 | 7 | 36 | 4.8 | 12.9 | 0.00 | 0.00 | 0.00 | 91 | 1016.4 |
| 20260506071457 | 7 | 66 | 3.2 | 8.0 | 0.00 | 0.00 | 0.00 | 92 | 1016.0 |
| 20260506070953 | 7 | 59 | 8.0 | 9.7 | 0.00 | 0.00 | 0.00 | 92 | 1016.4 |